SCP
0 0 0 0 0 0 0 0 0 0 0 0 0 0 0 0 0 0 1 1 1 1 2 2 2 2 3 3 4 4 3 3 2 2 2 1 1 1 1 1 1 1 1 1
0 0 0 0 0 0 0 0 0 0 0 0 0 0 0 0 0 0 1 1 1 1 2 2 2 3 3 3 4 4 3 3 2 2 2 2 1 1 1 1 1 1 1 1
0 0 0 0 0 0 0 0 0 0 0 0 0 0 0 0 0 0 0 0 1 1 1 2 2 3 3 3 4 4 3 3 3 3 2 2 2 2 2 1 1 1 2 2
0 0 0 0 0 0 0 0 0 0 0 0 0 0 0 0 0 0 0 0 0 1 1 2 2 3 3 3 3 4 4 4 3 3 3 2 2 2 2 2 2 2 2 2
0 0 0 0 0 0 0 0 0 0 0 0 0 0 0 0 0 0 0 0 0 1 1 1 2 3 3 3 3 4 5 4 4 3 3 3 2 2 2 2 2 2 2 2
0 0 0 0 0 0 0 0 0 0 0 0 0 0 0 0 0 0 0 0 0 1 1 1 1 2 3 3 3 4 5 5 4 4 3 3 3 2 3 3 2 2 2 2
0 0 0 0 0 0 0 0 0 0 0 0 0 0 0 0 0 0 0 0 1 1 1 1 1 2 3 3 3 4 4 5 5 4 3 3 3 3 3 3 3 2 2 2
0 0 0 0 0 0 0 0 0 0 0 0 0 0 0 0 0 0 0 0 1 1 1 1 1 2 3 3 4 4 4 4 4 4 4 3 3 3 3 3 3 3 2 2
0 0 0 0 0 0 0 0 0 0 0 0 0 0 0 0 0 0 0 0 0 1 1 1 2 2 3 3 3 4 4 4 4 4 4 3 3 3 4 4 3 3 3 2
0 0 0 0 0 0 0 0 0 0 0 0 0 0 0 0 0 0 0 0 0 1 1 2 2 2 3 3 3 4 4 4 4 4 3 3 3 4 4 4 3 3 3 2
0 0 0 0 0 0 0 0 0 0 0 0 0 0 0 1 1 0 0 0 1 1 2 2 3 3 3 3 3 3 4 4 4 4 3 3 3 3 4 4 3 3 3 2
0 0 0 0 0 0 0 0 0 1 1 0 0 0 0 1 1 1 1 1 1 2 2 3 3 2 2 2 3 3 3 3 3 3 3 3 3 3 3 3 3 3 2 2
0 0 0 0 0 0 0 0 0 0 0 0 0 0 1 1 1 1 1 1 2 2 2 2 2 2 2 2 2 3 3 3 3 3 3 3 3 3 2 2 2 2 2 2
0 0 0 0 0 0 0 0 0 0 0 0 0 0 1 1 1 1 1 1 2 2 2 2 2 2 1 1 2 2 2 2 2 2 2 2 2 2 2 2 1 1 1 1
0 0 0 0 0 0 0 0 0 0 0 0 0 0 1 1 1 1 1 1 1 2 1 1 1 1 1 1 1 1 1 1 1 1 1 1 1 1 1 1 1 1 1 1
0 0 0 0 0 0 0 0 0 0 0 0 0 0 1 1 1 1 1 1 1 1 1 1 1 1 1 1 1 1 1 1 1 1 1 1 1 1 1 1 1 1 1 1
0 0 0 0 0 0 0 0 0 0 0 0 0 1 1 1 1 1 1 1 1 1 0 0 1 1 1 1 1 1 1 1 1 1 1 1 1 1 1 1 1 1 1 1
0 0 0 0 0 0 0 0 0 0 0 0 0 1 1 1 1 1 1 1 0 0 0 0 1 1 1 1 1 1 1 1 1 1 1 1 1 1 1 1 1 1 1 1
0 0 0 0 0 0 0 0 0 0 0 0 1 1 1 1 0 0 0 0 0 0 0 0 1 1 1 1 1 1 1 1 1 1 1 1 1 1 1 1 1 1 1 1
0 0 0 0 0 0 0 0 0 0 0 0 1 1 1 0 0 0 0 0 0 0 0 0 1 1 1 1 1 1 1 1 1 1 1 1 1 1 1 1 1 1 1 1
0 0 0 0 0 0 0 0 0 0 0 0 1 1 1 0 0 0 0 0 0 0 0 1 1 1 1 1 1 1 1 1 1 1 1 1 1 1 1 1 1 0 0 0
0 0 0 0 0 0 0 0 0 0 0 0 0 0 0 0 0 0 0 0 0 1 1 1 1 1 1 0 0 0 1 1 1 1 0 0 0 0 0 0 0 0 0 0
0 0 0 0 0 0 0 0 0 0 0 0 0 0 0 0 0 0 0 0 0 1 1 1 1 1 1 0 0 0 0 0 0 0 0 0 0 0 0 0 0 0 0 0
0 0 0 0 0 0 0 0 0 0 0 0 0 0 0 0 0 0 0 0 0 0 1 1 1 1 1 0 0 0 0 0 0 0 0 0 0 0 0 0 0 0 0 0
0 0 0 0 0 0 0 0 0 0 0 0 0 0 0 0 0 0 0 0 0 0 0 0 0 0 0 0 0 0 0 0 0 0 0 0 0 0 0 0 0 0 0 0
0 0 0 0 0 0 0 0 0 0 0 0 0 0 0 0 0 0 0 0 0 0 0 0 0 0 0 0 0 0 0 0 0 0 0 0 0 0 0 0 0 0 0 0
Wind_Speed
13 13 14 13 13 14 15 14 12 10 7 9 8 9 7 8 7 7 6 7 7 7 7 7 7 8 8 7 7 7 6 5 5 4 3 3 3 2 2 2 2 2 2 2
13 16 16 14 13 14 15 14 13 10 8 6 8 9 8 8 8 7 7 7 7 8 8 8 7 7 7 7 7 6 5 5 4 3 2 2 3 2 2 2 3 3 2 2
17 13 13 13 13 13 14 14 14 13 10 8 8 11 10 6 6 6 6 7 7 7 8 9 8 7 8 7 7 6 6 5 5 4 3 2 2 2 2 3 3 3 2 2
16 16 12 13 14 13 13 13 14 15 11 9 10 9 8 8 7 7 7 6 7 7 7 8 9 8 8 7 7 6 6 4 4 4 3 4 3 3 2 2 2 3 3 2
14 14 14 14 13 13 13 12 12 14 13 12 10 10 6 7 6 6 6 6 7 7 7 7 9 9 8 8 7 7 6 5 4 3 3 2 2 2 2 2 3 2 2 2
16 14 13 13 11 11 12 12 12 13 11 13 11 10 7 7 7 7 6 6 5 6 7 7 6 7 7 7 7 7 6 5 5 4 3 2 2 2 2 2 2 2 2 2
15 15 12 10 12 11 11 9 7 8 8 10 7 7 5 4 5 5 5 5 6 5 6 6 6 6 6 7 7 7 7 5 5 4 4 2 2 2 2 2 2 2 2 2
11 12 11 10 11 10 11 11 9 8 8 8 7 7 5 6 4 5 6 4 5 5 5 6 5 5 5 6 6 7 7 6 5 5 4 3 3 2 2 1 1 2 1 1
8 9 9 10 10 12 12 12 13 12 13 11 6 6 5 3 4 4 5 5 5 4 4 6 5 5 5 5 4 5 6 5 5 5 4 4 4 2 2 2 2 1 1 1
9 10 9 9 9 12 13 10 7 8 9 10 7 5 5 8 6 5 5 5 5 5 5 6 5 5 5 5 4 4 5 5 5 5 4 4 3 3 2 2 2 1 1 1
9 9 9 8 9 11 11 11 9 7 8 9 8 2 1 5 4 4 4 4 4 4 5 5 5 5 5 5 5 4 4 5 4 4 4 3 3 3 2 2 1 1 1 1
6 6 9 11 9 9 10 11 10 8 8 8 8 2 4 5 4 3 3 3 4 4 3 4 5 4 4 4 5 4 4 4 4 4 3 2 2 2 2 2 1 1 1 1
5 5 8 9 7 5 8 10 10 7 6 8 8 3 5 5 3 4 4 2 3 3 3 3 4 4 3 3 4 4 4 4 4 4 4 3 2 2 1 1 1 1 2 2
5 7 9 10 7 6 9 11 11 8 8 9 8 3 3 3 3 3 3 3 3 4 4 3 3 3 2 2 3 3 3 3 3 3 4 3 3 2 1 1 2 2 2 3
5 9 11 12 11 10 11 12 11 10 10 9 7 4 2 1 2 4 4 3 3 3 3 3 2 2 1 2 2 2 2 2 2 2 3 3 2 2 2 1 1 2 2 3
3 7 10 12 12 12 12 11 11 10 9 9 7 3 3 4 4 4 4 3 3 3 3 2 1 1 1 1 1 2 2 2 2 2 2 3 2 2 2 1 1 1 1 1
5 6 9 11 11 11 11 9 10 8 7 7 4 1 4 4 5 5 4 4 3 3 3 3 2 1 1 0 1 1 2 2 2 2 2 2 2 2 2 2 1 1 1 1
6 7 6 9 9 12 4 4 5 4 3 1 0 2 3 4 5 5 5 4 3 4 3 3 2 1 0 1 1 1 2 3 3 3 2 2 2 2 1 1 1 1 1 1
6 7 6 7 10 9 4 4 5 5 1 2 1 2 3 3 4 5 6 5 4 4 4 3 2 1 2 1 1 1 2 3 3 3 2 3 2 2 1 1 1 1 1 1
6 6 7 7 9 8 3 5 6 4 1 4 4 4 3 1 0 3 6 5 5 5 4 4 3 3 3 2 1 1 2 2 2 2 1 1 1 1 1 1 1 1 1 1
6 7 8 9 9 4 3 5 5 3 2 5 6 6 6 5 4 4 5 5 4 4 4 4 3 3 3 2 2 1 1 0 1 1 1 1 1 2 2 2 2 2 2 2
5 5 6 7 8 4 4 3 3 4 5 5 6 6 6 5 5 4 4 4 4 5 5 4 4 4 3 3 2 2 2 1 0 0 1 0 0 1 1 2 2 2 3 3
4 3 2 2 1 2 5 5 5 4 4 4 4 4 4 4 3 3 4 4 4 4 4 4 4 4 3 3 3 2 2 2 1 1 1 1 1 0 1 1 2 2 2 2
2 2 3 2 1 0 3 5 4 3 3 3 3 3 3 3 3 3 3 3 3 4 3 3 3 3 3 3 2 2 2 2 2 2 1 1 0 0 0 0 1 1 1 1
5 4 4 4 1 1 2 3 3 3 2 2 2 2 2 3 3 3 2 2 2 2 2 2 2 2 2 2 2 2 2 2 2 2 1 1 1 0 1 1 0 1 0 0
5 5 5 4 1 1 1 1 1 2 2 2 3 3 3 3 3 3 2 2 2 1 1 1 1 2 2 2 2 2 2 2 2 2 1 1 1 0 1 1 0 1 1 2
Wind_Direction
221 229 236 236 239 252 259 269 267 259 229 222 229 238 218 197 204 199 181 171 169 158 142 139 142 141 138 136 140 145 148 148 151 158 163 164 163 158 155 145 138 151 176 198
227 232 242 248 247 250 260 268 270 270 246 228 241 251 238 205 200 203 190 183 174 161 148 142 140 140 144 143 144 140 146 153 164 154 152 169 162 167 159 144 146 153 174 202
234 234 233 249 254 252 256 258 264 269 263 237 232 246 240 216 196 191 195 189 184 171 160 154 155 150 146 146 150 153 153 162 168 158 162 160 151 168 161 160 158 165 182 198
243 244 235 239 247 248 254 254 261 267 259 250 239 245 221 201 205 201 196 192 183 180 165 160 160 160 159 158 153 142 142 150 152 159 159 166 175 177 172 162 157 169 181 195
247 244 240 242 244 250 258 262 259 261 263 260 251 253 243 199 204 210 197 193 187 182 172 166 165 161 164 161 153 144 138 149 151 161 158 167 169 163 153 147 144 162 176 184
257 252 241 247 249 252 261 265 261 256 256 251 245 252 243 213 198 201 184 182 179 173 165 158 150 150 160 159 152 148 145 147 153 164 156 168 159 161 160 160 157 171 179 177
251 253 242 239 247 240 244 250 254 248 245 251 249 242 234 206 207 176 165 161 162 157 149 138 136 140 151 157 153 149 148 152 156 163 162 175 177 189 177 177 174 182 187 173
245 248 234 231 247 245 235 239 244 255 260 257 234 223 207 183 183 137 123 126 124 137 141 140 141 140 146 142 144 147 151 156 161 163 169 176 191 207 186 185 200 191 203 182
265 254 236 232 240 253 243 240 252 265 272 269 238 194 173 138 141 130 130 137 134 154 151 141 143 137 137 138 138 144 150 157 169 172 175 182 185 192 188 202 212 177 189 190
275 285 267 234 238 244 250 254 261 264 277 276 256 215 184 169 167 156 152 154 156 158 145 138 145 136 129 129 131 144 153 165 171 173 184 180 187 197 189 195 183 173 176 162
267 274 269 248 234 249 248 247 249 258 261 272 272 247 140 143 138 150 157 144 139 136 139 143 143 137 135 143 151 154 157 162 170 176 181 181 185 192 186 194 181 170 172 184
277 273 275 264 250 252 263 262 253 250 259 268 279 300 67 100 125 149 132 126 119 123 134 139 138 135 138 150 154 158 165 169 173 174 175 171 181 186 187 192 186 183 180 198
301 273 267 260 246 246 262 265 266 255 258 264 266 230 102 88 92 100 104 95 111 106 98 99 115 119 131 143 148 156 164 172 179 176 169 153 159 165 183 179 199 216 204 208
265 263 262 263 268 267 260 268 268 264 253 257 257 241 115 107 91 77 72 71 82 81 85 81 78 96 116 113 129 148 152 158 171 168 164 163 168 160 182 190 198 215 220 218
267 262 266 272 272 268 268 267 265 258 253 256 255 230 157 96 81 85 68 59 81 82 70 63 61 62 77 98 111 141 149 151 155 167 170 164 165 166 184 193 213 223 229 228
253 279 281 273 268 273 268 265 262 263 263 254 249 247 98 83 57 74 74 56 45 43 37 23 48 64 34 104 152 150 150 152 165 181 186 167 169 177 194 205 216 227 248 251
252 265 274 271 275 277 261 262 252 253 262 269 268 6 67 69 60 49 46 58 38 20 7 1 10 7 334 274 148 154 163 166 178 187 189 180 178 193 202 220 204 219 248 252
253 259 266 270 272 259 261 314 290 260 273 293 68 66 72 65 73 65 49 48 24 6 0 356 352 341 358 77 125 165 184 180 187 193 201 197 199 201 173 169 187 212 245 261
230 238 256 264 264 257 252 289 295 285 303 28 38 80 71 93 104 75 49 41 30 11 3 358 359 88 102 99 126 189 202 192 199 199 202 205 207 193 170 180 183 192 225 254
218 219 239 256 263 266 299 321 303 276 160 36 35 54 55 38 307 48 46 41 31 21 15 18 30 63 72 73 94 196 218 191 202 213 210 165 165 167 184 186 182 196 220 243
224 229 236 252 259 273 328 314 296 253 71 43 48 51 46 39 47 64 50 40 32 34 26 28 41 62 57 54 70 54 27 101 213 230 147 130 164 185 190 179 181 202 220 227
245 250 250 254 254 261 348 357 18 61 56 45 48 55 58 62 66 64 56 42 30 36 34 30 41 51 43 38 46 44 21 15 16 71 89 94 203 224 181 167 191 209 220 229
253 271 292 317 348 31 41 56 61 63 57 47 40 44 63 71 71 66 61 47 32 33 31 24 29 48 45 37 35 32 15 11 45 76 82 17 317 287 213 189 199 231 237 245
282 294 267 241 181 0 66 67 61 48 42 35 31 42 52 53 69 68 61 50 36 29 30 26 35 49 43 38 34 32 22 22 55 70 58 52 329 220 213 218 224 231 233 248
312 304 284 272 249 317 21 38 35 37 33 38 55 48 48 71 59 63 58 43 41 32 29 25 32 41 54 44 37 32 35 35 41 52 39 9 313 230 159 210 268 243 328 223
292 296 287 288 297 287 307 334 11 4 9 21 35 36 40 47 48 48 50 33 34 32 26 33 28 27 51 56 48 51 50 46 33 18 7 352 338 295 205 195 119 34 169 149